Location: ???????
(55.5931°N, 39.3286°E)
Time: 01:33:24
(UTC+00:00)

USA 229 DEB - Pass Details

Date: 14 April 2024
Orbit: 892 x 1319 km, 63.4° (Epoch: 15 May)

Event Time Altitude Azimuth Distance (km) Brightness Sun altitude
Rises 01:34:41 0° 302° (WNW) 3,838 6.3 -6.7°
Reaches altitude 10° 01:37:15 10° 306° (NW) 2,941 5.8 -6.4°
Maximum altitude 01:44:17 66° 29° (NNE) 1,276 4.4 -5.5°
Drops below altitude 10° 01:52:03 10° 111° (ESE) 3,234 6.9 -4.5°
Sets 01:55:00 0° 114° (ESE) 4,242 7.5 -4.1°
